GFSMW_sfc_temp_033.txt.gz
Temp
56 59 59 60 60 57 58 59 59 58 58 57 56 55 53 54 53 55 55 55 55 57 55 53 51 50 49 48 48 47 46 45 44 43 45 46 47 45 46 47 46 47 48
56 57 56 55 56 57 56 57 59 59 58 58 55 55 53 53 52 52 53 54 55 53 53 50 50 50 50 47 46 45 45 44 42 41 40 38 43 43 48 45 45 41 44
55 55 55 53 53 55 56 57 57 58 58 57 56 54 53 52 51 51 50 51 51 51 50 49 48 47 46 44 44 43 42 41 41 42 40 36 33 36 41 44 41 40 41
55 55 53 51 53 53 54 56 57 57 57 57 56 55 53 51 49 48 48 48 50 50 50 49 47 46 45 44 44 45 41 41 39 41 44 40 41 33 32 38 40 40 41
54 56 58 57 57 55 53 54 56 56 56 55 54 52 52 50 49 48 48 49 49 49 49 48 46 45 44 43 42 41 41 40 39 38 39 36 37 36 37 33 37 39 37
56 55 57 56 54 53 52 53 54 54 54 53 53 52 50 48 47 47 49 47 46 45 45 46 44 43 43 42 41 41 40 39 38 38 37 36 36 34 35 37 36 35 36
53 52 54 56 56 55 53 53 53 53 53 52 51 50 49 48 48 48 45 44 43 42 43 44 43 42 42 42 41 40 39 38 37 37 36 36 36 39 39 37 35 33 35
55 56 57 55 55 53 52 52 53 52 52 50 50 49 50 48 47 46 44 42 42 42 43 43 43 42 42 41 40 39 39 38 37 36 36 36 36 38 39 38 34 32 33
52 52 52 52 51 52 51 51 51 51 50 49 48 48 48 46 45 44 42 42 42 44 42 42 41 41 41 41 39 38 37 37 36 36 35 35 36 36 36 35 34 33 29
50 50 50 51 51 51 51 50 50 50 49 49 48 48 47 46 44 42 42 42 42 42 42 41 41 40 40 39 38 37 37 35 35 36 34 33 33 33 32 32 33 32 32
48 49 50 51 51 50 49 48 48 49 48 48 47 46 45 44 43 42 42 42 42 42 42 43 42 41 41 40 38 37 36 35 33 33 32 32 33 32 32 31 31 30 30
50 49 50 50 50 48 49 49 49 48 48 48 47 45 44 43 42 41 42 42 41 43 42 41 41 41 41 40 37 36 35 34 32 32 31 32 36 30 29 28 28 29 29
46 47 49 47 48 50 50 49 48 47 47 46 44 44 43 43 42 42 41 41 41 40 40 42 39 40 40 39 37 35 34 32 32 31 30 30 30 28 28 28 28 29 32
47 47 48 48 48 50 48 46 46 46 46 45 44 43 42 42 41 41 40 40 40 39 39 40 39 40 40 38 36 34 32 31 31 31 30 30 29 28 27 29 28 30 28
45 47 47 47 47 46 45 45 45 45 45 44 43 42 42 42 41 40 40 40 39 39 39 39 39 39 39 37 32 32 31 30 29 30 31 30 32 35 33 31 28 27 28
46 47 46 46 45 45 44 45 44 44 44 43 42 42 42 41 40 39 39 38 37 39 39 35 35 35 38 37 37 35 30 30 30 28 29 29 32 30 33 33 33 32 27
43 43 43 44 44 44 45 43 44 44 42 41 42 41 40 39 39 39 38 37 36 39 34 34 36 34 33 37 37 35 31 29 28 26 27 28 31 30 29 30 31 31 32
42 44 43 43 42 42 43 43 43 41 41 40 40 40 39 38 37 37 35 33 33 35 35 33 33 31 33 35 33 32 26 25 26 26 26 26 26 27 29 28 27 28 30
43 43 43 43 42 42 42 41 40 39 39 39 38 38 38 37 36 34 35 36 35 35 32 32 31 29 28 34 33 30 24 25 24 27 27 27 26 29 30 27 26 26 28
43 43 42 42 41 40 39 39 38 37 37 38 38 38 37 35 34 33 33 36 35 31 31 31 29 31 26 32 32 30 21 16 23 24 26 27 28 29 30 27 26 24 27
42 42 40 39 39 40 40 38 36 36 38 38 37 36 35 33 33 35 37 35 31 30 26 25 26 27 28 26 31 30 21 21 23 23 23 26 28 30 29 29 26 26 27
40 40 39 38 39 39 38 36 34 37 37 37 35 34 33 33 34 35 34 30 28 28 26 13 18 22 23 28 28 30 29 29 20 23 24 25 29 28 28 27 28 28 26
39 39 37 37 38 38 37 35 36 36 35 34 33 32 32 32 31 33 32 29 27 22 21 22 15 19 24 21 28 28 29 28 21 23 26 27 27 27 26 26 26 25 24
37 37 36 35 35 37 37 35 36 35 34 34 33 34 31 30 30 33 32 27 21 18 22 19 18 17 19 19 20 23 18 24 24 20 19 20 24 23 23 23 23 23 23
36 36 35 34 34 35 35 35 35 34 33 33 34 32 30 28 28 30 28 28 26 24 21 19 19 7 6 17 27 27 21 16 21 12 11 14 17 18 19 19 21 21 21
36 35 34 33 33 33 32 33 35 35 33 30 32 31 27 24 27 27 28 32 30 32 33 32 19 15 23 29 31 30 28 27 24 13 7 3 5 11 16 15 16 18 17

GFSMW_sfc_temp_039.txt.gz
Temp
59 61 62 64 65 65 66 60 62 60 60 59 57 58 58 60 61 63 62 62 62 62 61 62 61 61 60 58 57 58 56 58 56 55 57 58 59 57 59 59 59 57 57
60 60 62 63 65 64 65 65 64 64 65 67 67 66 64 63 62 61 60 61 61 61 61 60 60 59 60 58 57 55 55 56 55 52 53 51 55 57 57 57 56 53 56
60 59 60 61 62 64 64 66 66 66 66 66 64 63 62 61 61 61 61 60 60 60 60 59 60 59 59 57 56 55 52 52 54 52 51 47 46 48 55 54 54 54 54
60 61 61 61 62 63 64 66 65 65 64 64 65 64 66 65 61 60 61 62 59 59 59 59 58 57 58 56 55 56 53 52 50 52 53 51 48 40 40 50 51 53 53
60 61 62 63 63 62 62 63 64 64 62 63 64 64 60 59 59 60 58 59 59 58 57 57 57 56 57 55 54 53 52 53 50 50 49 48 48 48 41 39 46 50 48
60 62 62 62 62 61 62 62 62 61 62 62 61 60 59 58 59 59 59 59 58 58 57 57 56 55 54 53 53 52 51 51 50 50 49 47 43 42 41 37 42 42 45
61 61 61 62 62 61 59 61 63 61 61 60 60 60 60 59 59 59 59 58 59 58 58 55 54 54 53 53 52 51 50 50 49 48 47 47 45 45 41 41 41 39 44
60 61 62 62 62 61 61 61 61 59 60 60 59 60 59 61 60 58 57 57 56 56 55 54 53 52 51 51 50 50 48 49 47 47 47 46 47 46 45 43 40 37 41
60 61 61 60 60 60 59 59 60 59 58 57 59 58 58 56 55 55 55 54 53 53 53 53 52 51 51 50 50 49 48 48 47 46 46 45 46 46 45 44 42 37 33
57 57 57 57 58 59 59 58 58 55 55 57 56 56 55 54 54 53 53 52 53 53 52 52 51 51 50 50 50 49 48 47 47 46 44 44 44 44 43 43 42 41 36
55 55 56 57 57 57 57 56 55 55 55 55 55 54 54 54 53 53 53 52 52 52 51 51 50 49 48 47 47 47 46 45 45 44 43 43 43 43 43 43 42 40 39
54 55 55 56 57 57 57 53 53 53 54 55 54 53 53 53 52 52 52 51 50 51 50 49 48 46 44 43 42 40 45 43 42 41 42 41 42 41 42 41 39 39 39
53 54 54 55 55 54 55 53 53 53 55 55 55 53 52 51 51 50 50 50 50 49 48 47 46 42 43 42 44 44 42 42 41 41 40 40 40 39 39 39 38 38 37
52 54 53 54 54 54 53 51 51 54 54 54 53 51 50 49 49 49 49 48 48 46 46 46 45 44 42 44 44 43 42 41 41 40 39 39 38 37 37 36 35 35 34
51 53 52 53 53 51 49 52 53 53 53 52 51 50 49 48 48 48 47 46 45 45 45 44 42 43 43 44 42 42 40 39 39 39 38 37 36 34 34 35 34 33 32
51 51 51 51 51 50 52 51 51 51 50 50 48 48 47 47 47 46 45 44 43 43 42 40 42 40 42 37 35 37 39 37 36 35 36 36 34 34 32 31 31 32 30
50 50 50 50 50 51 51 51 50 49 48 48 48 46 46 46 45 44 44 42 42 42 39 38 37 38 39 35 35 33 37 35 35 34 34 33 34 33 33 32 32 33 33
49 49 50 49 50 50 50 48 49 48 47 46 45 45 45 43 43 42 42 41 41 37 37 36 38 39 38 34 33 32 35 34 34 33 33 33 32 33 31 32 32 34 34
50 50 51 50 49 49 48 48 47 46 45 44 44 44 43 42 41 41 40 39 38 37 37 38 37 37 37 33 33 33 33 32 32 33 33 32 31 30 31 30 29 30 32
49 48 48 49 48 47 46 46 45 44 43 43 43 43 42 41 40 40 39 39 37 37 36 36 37 33 34 31 32 33 33 29 30 32 32 30 29 29 30 28 28 26 30
48 48 48 47 46 45 44 44 43 42 43 43 43 42 41 40 40 39 40 39 37 36 33 33 34 34 33 33 31 31 31 30 30 30 30 31 28 29 29 28 28 26 28
45 46 46 45 44 44 43 43 42 43 42 42 41 41 41 41 38 38 39 38 36 34 33 30 31 34 32 30 30 30 30 30 28 28 29 29 27 27 26 27 27 26 26
45 45 44 42 42 42 42 40 41 41 39 39 39 40 40 38 38 37 37 37 35 33 32 32 32 33 33 33 29 29 29 29 28 28 27 25 25 25 26 25 25 25 26
44 43 42 41 40 41 39 40 39 39 38 37 39 40 38 37 37 37 37 37 35 33 32 32 32 32 32 32 33 32 32 29 28 26 27 23 23 23 23 25 26 25 23
41 42 40 39 39 39 38 39 39 38 37 37 38 37 36 35 35 36 37 36 36 33 33 33 32 30 30 32 30 30 30 30 28 24 25 24 23 23 24 24 24 24 23
41 39 39 38 38 37 37 38 38 38 37 35 37 37 36 36 35 35 35 34 32 32 32 32 31 33 30 29 30 31 30 28 24 25 23 21 20 21 22 22 22 23 20

GFSMW_sfc_temp_042.txt.gz
Temp
72 73 73 74 73 69 70 70 67 63 62 69 66 67 64 68 70 72 70 69 70 69 69 70 69 68 67 65 64 64 63 63 64 61 63 65 67 65 66 66 65 65 64
71 70 72 73 72 70 70 71 73 73 74 75 75 75 74 75 74 72 69 69 68 68 69 67 68 66 66 64 63 61 61 63 63 57 57 56 61 65 65 64 63 61 62
70 69 70 71 71 71 73 76 76 75 76 76 75 74 72 71 70 69 70 69 68 69 67 67 66 65 65 63 62 61 59 58 61 61 55 51 50 55 60 59 60 59 60
71 72 72 72 73 74 76 77 77 76 74 73 74 72 75 74 72 72 71 71 68 67 67 66 65 63 64 62 62 63 59 58 56 59 60 57 54 43 43 54 57 59 58
71 71 73 74 75 73 74 75 75 74 73 73 73 73 71 71 71 70 67 68 69 67 66 65 64 63 63 62 60 59 58 59 56 54 51 51 51 51 45 42 49 56 58
71 73 74 74 73 71 71 72 73 72 72 72 71 70 68 67 69 68 67 69 68 67 66 65 64 63 62 60 60 59 57 56 54 53 50 48 45 46 44 43 44 47 52
70 71 71 72 72 70 70 70 72 71 71 70 69 69 67 67 66 66 67 64 65 65 64 63 62 62 61 60 59 57 56 55 53 52 51 49 47 48 45 43 44 45 50
71 72 72 72 71 70 71 71 71 69 69 69 67 66 67 70 68 66 64 64 63 62 61 60 60 60 60 59 57 56 55 54 53 51 51 49 50 50 48 45 43 40 45
70 71 71 71 71 71 69 70 69 69 67 66 65 63 66 64 64 63 62 63 61 61 60 60 59 59 58 58 56 54 53 53 51 49 49 50 51 52 51 50 48 40 36
70 71 71 69 69 70 69 68 69 66 63 62 62 63 63 64 63 63 60 59 60 60 59 58 58 57 57 57 55 54 54 51 50 51 50 51 51 51 49 50 48 45 41
69 69 69 68 68 68 68 66 64 63 63 61 60 61 64 63 63 62 60 59 59 58 57 57 56 55 55 54 51 51 52 47 47 49 48 48 49 47 49 49 48 46 45
69 67 66 66 66 66 66 65 64 63 61 59 61 62 63 62 61 60 58 58 57 57 56 55 54 54 53 49 47 45 45 46 47 48 47 47 47 47 48 47 45 44 45
65 65 65 65 65 65 63 63 61 61 59 63 63 62 61 60 58 57 57 56 55 55 54 54 53 52 50 49 46 45 48 49 48 47 46 45 46 45 45 45 44 44 43
63 64 64 64 64 63 62 59 59 60 62 63 62 60 59 58 57 56 55 54 54 52 52 52 52 46 47 48 48 49 48 47 47 46 46 45 44 42 42 41 41 41 39
62 63 63 63 63 62 59 60 61 61 62 60 59 58 56 56 55 54 53 53 52 51 51 49 47 46 49 49 47 46 45 45 45 45 44 44 40 36 36 37 38 36 35
62 63 63 62 61 59 60 60 60 60 59 58 56 56 55 54 53 52 51 51 50 50 50 46 46 44 46 36 35 37 45 44 43 42 42 43 39 39 34 34 33 34 33
61 61 61 59 58 58 60 59 59 58 56 55 55 54 52 52 52 51 50 49 48 47 44 44 42 41 42 36 35 34 43 42 42 41 41 40 41 38 37 35 33 34 33
61 60 59 55 56 59 58 57 58 56 54 53 53 52 51 51 51 49 48 48 47 43 44 42 42 43 42 35 34 33 41 41 40 40 39 39 38 37 33 33 33 34 35
62 61 59 56 58 56 58 56 55 54 52 51 51 51 50 49 48 47 47 46 42 42 40 42 42 42 43 34 33 34 39 39 38 39 39 37 36 33 31 30 30 31 33
62 59 56 54 55 52 55 54 53 52 50 50 50 51 50 48 47 47 46 44 42 41 42 39 42 37 41 33 32 34 37 33 36 38 38 34 32 29 30 29 28 27 31
58 58 56 55 54 53 52 51 52 49 50 49 49 49 49 48 47 46 46 43 42 42 38 36 40 41 40 39 32 32 34 34 34 35 36 36 30 29 29 28 29 27 29
54 55 51 52 53 52 51 51 49 51 49 49 48 47 48 47 47 45 45 42 42 40 38 34 35 38 39 35 34 31 31 32 31 32 35 33 28 28 27 28 26 27 27
48 49 50 49 50 50 50 47 49 48 47 46 45 46 47 46 46 43 41 40 40 37 35 35 34 36 38 38 33 31 30 30 31 33 31 28 27 28 29 28 26 27 29
47 45 48 48 48 47 47 48 47 47 46 44 44 45 45 44 45 42 40 40 38 36 36 35 34 35 35 36 36 36 35 32 32 33 33 30 26 28 28 31 31 30 29
45 46 48 47 46 47 46 47 47 45 43 43 43 43 44 43 43 42 41 40 40 38 37 36 35 32 31 33 34 33 34 33 32 28 30 31 30 30 31 31 30 30 29
47 45 44 44 45 45 46 46 46 45 42 41 42 42 42 41 40 40 40 36 34 34 33 33 33 35 34 33 31 31 31 31 29 29 30 29 28 27 29 28 28 29 28

GFSMW_sfc_temp_045.txt.gz
Temp
81 79 81 82 83 81 77 72 68 67 72 73 70 69 68 71 72 74 72 72 72 71 70 71 70 69 68 66 66 65 63 63 65 62 62 63 66 67 68 68 67 66 66
77 78 78 79 78 74 72 71 72 73 75 77 77 76 75 76 76 74 72 72 71 70 72 68 69 68 67 66 64 62 61 61 63 58 58 54 58 63 66 65 64 63 64
77 76 76 75 73 70 70 73 76 78 79 79 79 78 76 74 73 72 72 71 71 71 70 69 68 67 66 64 63 62 60 58 60 61 57 51 49 54 59 59 61 60 59
78 77 77 72 72 74 77 80 80 79 79 78 77 74 74 70 71 75 75 72 70 70 70 69 67 65 65 63 63 64 60 59 56 59 61 57 55 47 45 54 56 58 59
77 76 76 77 78 78 78 79 79 79 77 76 77 75 74 75 75 74 70 69 70 70 69 68 66 65 64 63 61 61 59 58 54 55 54 53 53 52 47 44 48 54 56
76 77 78 78 77 77 77 77 77 77 76 75 75 74 71 71 71 69 69 69 70 70 69 68 66 65 63 62 61 60 59 55 55 55 52 50 47 48 46 43 44 45 50
75 76 76 76 75 74 74 75 76 74 74 73 73 72 70 69 68 68 68 67 67 67 66 65 63 63 62 61 61 59 58 55 54 52 50 53 51 50 49 45 43 43 49
75 75 76 76 75 74 74 74 75 73 73 72 71 71 70 71 70 68 66 65 65 65 65 63 62 61 61 60 59 59 57 56 53 51 52 52 51 52 51 47 44 41 44
74 75 76 76 76 74 73 73 74 72 72 70 69 68 68 67 65 65 65 65 64 64 63 62 60 60 59 58 58 58 56 54 53 51 51 50 51 52 50 49 47 42 36
74 76 76 75 76 75 74 73 74 72 71 69 68 68 65 65 66 64 63 62 62 62 61 59 59 58 58 58 57 56 56 52 52 52 50 49 50 50 49 48 49 48 44
74 76 76 76 75 74 73 71 72 70 68 68 65 62 63 65 64 64 63 62 61 60 59 58 58 57 56 57 55 53 51 49 50 50 49 48 49 47 47 49 49 48 47
76 76 76 74 72 71 71 70 69 68 67 65 59 62 64 65 63 63 62 61 59 59 58 57 56 56 56 56 51 46 49 48 48 48 47 47 49 47 48 48 47 47 47
76 75 74 71 70 70 70 69 68 67 63 58 63 64 64 63 62 61 60 59 58 57 56 56 54 54 54 51 49 47 49 47 47 47 46 46 47 46 46 45 44 44 44
75 73 71 70 70 70 68 67 65 63 59 64 65 63 62 62 60 60 58 57 56 55 55 54 53 52 49 50 49 48 47 46 47 47 47 47 45 44 41 40 40 41 40
71 71 69 69 69 68 66 65 63 63 63 64 63 62 61 60 59 58 56 55 55 54 54 53 52 51 49 49 46 47 45 45 46 47 47 46 42 39 38 38 37 37 35
70 70 70 69 68 66 64 63 63 63 63 61 60 60 59 58 57 55 54 54 53 53 53 51 49 45 47 36 36 38 44 45 45 44 44 45 43 42 37 36 35 34 33
70 69 69 68 67 65 63 63 63 62 60 58 59 58 56 55 55 55 54 52 51 52 50 47 45 43 43 36 35 35 42 43 44 43 42 42 44 40 40 37 35 35 35
69 68 68 67 66 65 64 63 61 59 57 57 57 57 55 54 54 53 52 51 51 49 46 45 43 42 42 36 35 34 40 43 43 42 42 41 40 38 33 34 33 34 36
70 69 68 66 64 63 62 59 59 58 57 55 54 55 54 53 52 51 50 50 49 45 42 43 41 41 41 35 35 34 40 41 40 41 41 40 39 32 31 31 29 31 33
69 68 66 63 62 60 60 57 56 56 53 54 53 54 54 52 51 50 50 49 48 44 43 41 41 41 40 35 35 34 37 36 37 40 40 34 33 30 30 28 28 27 32
67 66 63 60 59 58 54 52 54 54 55 54 53 52 53 52 51 50 50 49 46 42 39 38 40 40 39 39 34 33 35 35 35 35 37 38 31 29 29 29 29 27 29
62 61 59 56 54 54 53 54 53 54 54 52 51 51 51 51 50 49 48 47 43 39 38 35 37 40 40 37 35 34 32 33 32 33 36 36 31 29 29 29 29 28 28
58 56 53 48 50 52 51 48 51 52 50 49 49 49 49 50 49 47 47 42 41 40 38 37 37 37 39 40 35 34 32 31 31 34 34 31 31 30 31 31 29 28 31
51 48 46 46 50 52 50 50 49 49 48 46 46 47 47 46 47 47 47 41 39 38 38 37 36 38 37 38 39 35 34 32 32 33 34 32 30 30 29 31 34 33 32
44 47 48 47 48 50 49 50 50 48 46 45 46 46 45 45 45 46 44 41 42 40 38 38 38 35 34 36 35 34 35 34 33 30 32 33 34 32 33 33 33 33 32
44 43 47 47 48 49 49 50 50 49 46 44 45 44 43 44 44 44 41 40 36 36 36 35 34 36 35 35 33 33 33 32 32 30 30 31 31 30 31 31 31 32 31

GFSMW_sfc_temp_048.txt.gz
Temp
79 79 78 78 78 74 72 68 65 66 65 67 66 64 63 63 64 65 66 65 66 66 63 62 61 60 58 57 57 54 53 51 53 51 52 51 54 54 55 54 55 58 61
76 76 77 76 76 73 69 69 69 67 69 70 70 68 66 66 67 66 65 66 65 65 64 61 60 59 57 56 55 53 51 51 51 48 49 45 48 51 54 51 53 50 52
74 75 75 74 73 70 67 68 70 70 71 72 71 70 68 66 65 64 63 64 65 65 64 61 59 57 56 54 53 53 51 48 49 51 47 42 38 45 48 49 50 48 48
77 76 74 69 69 68 70 71 71 72 74 72 70 67 66 64 65 64 66 64 65 64 64 62 60 57 56 54 53 56 51 49 47 48 53 47 45 40 38 44 46 47 49
77 75 70 70 70 70 69 71 73 74 72 71 70 67 66 63 66 64 62 63 62 63 63 61 59 57 55 54 53 51 50 49 47 45 44 44 43 42 39 37 39 44 45
76 75 73 72 70 71 71 71 73 73 71 71 70 67 67 65 63 62 60 61 61 61 61 62 57 56 54 53 51 51 50 48 47 46 44 42 40 39 40 36 36 37 41
73 73 73 73 72 71 70 71 72 71 70 69 68 67 65 64 63 61 60 59 59 57 57 57 55 54 53 52 51 50 48 48 46 44 43 45 44 45 42 38 36 36 39
72 73 72 72 71 70 70 70 72 70 70 68 67 65 65 62 62 61 60 58 57 56 57 55 54 54 53 51 50 48 47 48 45 44 44 44 43 44 43 42 36 32 35
72 73 73 72 71 70 69 69 70 70 68 66 65 63 63 61 59 60 60 57 57 59 54 53 52 52 51 51 49 47 47 47 44 43 43 42 42 43 45 42 39 33 30
72 73 73 72 72 71 70 68 70 68 68 66 63 63 62 61 60 60 58 57 55 55 53 52 52 51 51 50 49 47 47 44 43 44 44 42 42 43 41 40 40 39 36
71 72 73 73 73 71 70 69 69 66 65 64 62 58 59 60 60 59 57 56 55 54 53 52 51 50 50 49 48 46 45 43 43 43 42 43 43 40 40 40 40 40 37
73 73 74 72 71 69 67 67 67 66 64 62 58 58 57 58 59 57 57 55 53 53 52 52 51 51 50 48 46 43 43 43 41 43 42 41 46 39 39 38 36 36 36
74 74 74 70 69 69 68 67 65 64 62 60 59 57 58 59 58 56 55 55 53 52 51 51 49 49 47 46 45 44 43 42 42 41 40 41 40 38 35 34 34 34 37
74 74 73 71 69 68 68 66 63 61 60 59 59 59 59 58 56 55 55 53 52 51 50 49 49 48 46 47 46 45 42 41 42 41 42 41 38 34 33 34 30 33 31
74 74 71 69 69 67 66 65 61 60 60 60 59 58 57 57 55 54 52 52 51 50 50 49 48 46 46 44 40 41 40 39 39 41 42 40 39 41 35 34 30 29 28
73 72 72 70 68 67 64 62 61 60 61 59 56 57 57 56 54 51 51 50 49 49 48 47 45 42 46 36 37 36 36 38 38 36 37 38 40 38 36 37 35 33 27
71 70 70 69 67 64 64 60 61 60 58 56 56 56 55 53 51 52 51 49 47 47 45 42 42 42 41 37 37 36 35 35 35 35 35 37 42 34 32 33 34 33 34
70 69 68 67 65 63 63 60 60 57 55 54 55 55 53 51 51 50 49 47 46 45 42 41 41 40 42 37 36 35 32 33 35 35 35 33 33 28 29 28 27 29 30
69 69 67 65 63 62 61 58 57 56 55 53 53 53 52 51 50 48 47 47 45 43 40 41 40 39 39 36 36 34 32 32 33 35 35 35 32 31 32 27 25 26 28
69 67 63 62 60 58 58 56 52 52 51 53 52 52 51 49 48 47 46 45 44 43 41 39 39 39 35 34 35 35 29 29 30 32 33 32 30 30 30 22 22 21 25
66 63 61 59 56 53 53 51 50 50 53 52 50 50 50 49 48 47 46 44 42 39 36 34 34 35 35 34 35 35 30 28 29 29 29 29 31 31 30 29 24 23 26
60 60 56 52 52 53 50 49 47 50 51 50 49 48 48 48 48 45 44 43 40 36 34 31 32 33 34 36 36 35 34 33 26 28 29 29 32 32 31 29 30 30 27
53 52 49 47 47 49 48 48 49 50 48 46 46 46 47 47 47 44 42 38 37 33 32 31 30 31 32 32 37 35 34 33 27 28 31 32 32 32 30 32 31 26 23
46 47 46 45 47 50 48 47 48 48 47 45 45 45 44 43 43 44 43 39 33 31 32 31 31 32 32 32 32 31 31 32 30 29 30 27 27 24 25 24 27 25 23
45 46 45 43 44 47 48 50 50 48 45 44 44 43 42 41 40 42 40 35 36 34 33 32 32 31 32 32 33 31 32 31 30 25 24 24 26 25 24 24 25 24 24
42 42 44 46 48 49 48 49 49 49 45 43 42 37 36 36 38 39 37 39 36 37 36 36 34 33 35 35 34 34 34 34 33 24 21 21 23 25 23 21 21 22 22

GFSMW_sfc_temp_051.txt.gz
Temp
69 71 70 72 70 66 65 63 61 60 60 58 57 56 54 55 56 57 60 60 60 60 57 55 55 54 53 51 52 50 49 48 47 45 47 46 48 49 48 48 48 50 51
68 69 69 70 68 66 63 62 62 60 61 61 60 59 58 57 58 58 58 59 59 59 59 55 54 53 52 51 50 49 46 46 47 44 42 39 44 45 50 46 47 45 47
66 67 68 64 65 61 61 63 63 62 63 64 62 59 58 57 56 56 56 58 60 60 57 56 54 53 51 50 48 48 47 44 45 46 42 37 35 39 43 45 43 44 43
68 68 66 61 62 60 63 64 65 63 64 65 62 59 56 57 56 56 56 57 59 59 58 57 54 53 51 50 48 51 46 45 42 43 49 42 40 35 36 40 43 43 45
68 68 65 63 63 63 64 61 64 65 65 66 62 60 57 57 57 57 59 57 58 58 59 56 53 51 50 49 48 46 46 44 43 42 41 40 39 38 35 34 35 39 41
69 67 66 67 65 62 61 61 63 64 64 62 61 60 58 58 59 58 57 56 56 54 54 55 51 50 49 48 47 46 45 44 43 42 41 40 38 39 38 35 33 33 37
63 63 65 63 64 60 61 62 65 62 63 62 60 59 58 57 57 54 53 53 53 53 52 51 50 49 48 48 47 45 44 43 42 41 40 41 41 41 42 39 34 33 35
62 62 63 63 64 62 61 67 62 62 62 61 59 58 58 56 54 55 55 54 53 53 50 50 49 48 48 47 46 44 43 43 40 41 40 41 42 41 41 41 35 30 30
61 62 62 63 61 61 61 61 61 61 61 60 58 57 55 55 55 55 54 53 53 55 51 48 48 47 47 47 46 43 42 41 40 39 40 39 39 40 41 39 39 34 28
62 61 62 62 63 62 62 61 61 61 61 62 61 59 55 56 55 55 55 55 52 52 51 48 47 47 47 46 45 42 42 40 39 41 39 38 39 40 39 39 40 37 32
61 61 61 64 63 62 61 62 60 62 62 60 57 55 56 57 57 57 54 53 52 51 49 48 48 48 46 45 42 41 41 40 39 38 39 39 41 39 37 36 34 32 31
63 62 62 62 63 65 66 65 62 61 60 57 55 55 56 57 56 55 54 52 51 50 49 48 48 46 46 44 43 40 41 39 39 40 39 38 42 36 33 32 30 29 30
62 62 62 65 66 66 64 63 61 58 57 57 55 55 56 56 54 55 52 51 49 49 47 49 47 46 45 43 43 41 40 40 40 39 38 38 37 32 30 30 29 28 33
65 64 64 65 65 63 62 60 56 56 57 57 55 54 54 54 52 51 51 48 49 47 48 48 47 44 43 43 42 42 39 39 39 39 39 37 34 32 31 31 28 30 26
62 63 60 58 58 57 57 57 56 56 57 56 55 52 52 52 52 50 49 49 49 48 48 47 44 42 43 42 38 38 37 36 36 36 38 36 38 41 34 32 27 27 25
63 61 60 60 59 58 56 57 55 56 57 53 52 53 52 52 49 48 48 48 46 46 47 44 42 40 44 38 38 37 34 35 34 32 33 34 38 37 36 36 35 32 26
61 62 60 60 59 58 57 56 56 55 53 51 52 53 51 49 48 49 48 47 45 45 43 41 40 39 39 38 38 37 33 32 31 30 31 34 37 32 30 31 32 30 32
60 59 57 55 56 57 57 56 55 52 51 51 51 50 48 48 48 48 46 45 44 43 39 38 39 38 39 38 37 36 31 31 31 31 31 30 28 28 29 27 26 26 27
56 55 55 53 52 52 53 53 53 52 51 48 48 48 48 47 46 45 44 44 42 40 39 39 38 36 35 37 37 35 31 30 30 32 32 32 27 31 32 27 25 24 26
55 54 52 50 48 48 49 47 45 46 46 48 47 47 46 45 44 44 42 42 42 41 38 37 35 37 34 36 36 34 28 28 28 29 30 32 29 30 30 21 20 19 23
51 49 48 46 46 47 47 46 45 44 46 47 46 46 46 44 44 43 43 42 39 36 33 33 33 33 33 32 36 35 29 28 28 28 26 27 31 31 32 31 23 20 25
46 45 43 43 44 46 47 45 44 47 48 47 46 45 45 45 45 41 40 39 36 33 32 26 29 29 32 34 35 35 35 31 26 27 27 27 32 33 32 30 30 30 27
42 43 42 44 45 47 46 44 44 46 45 43 42 42 42 42 42 39 37 34 33 28 29 29 27 28 30 30 35 35 35 33 27 27 28 31 33 33 30 31 32 27 22
43 45 45 44 43 44 45 44 44 45 43 40 40 40 39 38 37 38 37 33 28 27 29 28 28 27 28 28 28 29 32 33 30 28 28 25 26 24 25 25 27 24 21
43 43 41 40 41 42 43 44 44 44 41 39 39 38 37 35 34 35 34 33 31 30 28 28 29 27 26 30 32 30 28 26 28 24 25 25 22 23 25 24 24 23 22
41 39 39 39 41 42 42 43 43 42 39 37 36 33 31 31 32 32 34 36 35 35 36 36 32 33 35 35 36 35 34 33 31 25 20 15 15 18 23 23 21 18 19

GFSMW_sfc_temp_054.txt.gz
Temp
67 70 69 68 67 63 63 62 60 58 59 57 57 55 53 54 54 55 57 57 57 57 54 53 52 51 51 49 50 48 47 46 45 43 43 43 45 45 45 45 45 47 48
64 67 67 67 66 62 63 61 61 59 60 59 57 56 55 54 54 55 56 57 56 55 55 53 52 51 49 49 48 47 45 44 44 42 39 38 40 43 48 44 46 42 44
63 64 65 64 63 61 60 62 61 60 60 60 59 56 55 54 53 53 53 55 57 57 55 53 51 51 49 48 46 45 45 42 42 43 42 36 33 36 40 42 42 42 41
66 64 65 61 61 60 60 62 61 61 60 60 59 56 55 55 53 53 53 55 57 56 55 54 52 50 49 47 47 47 44 42 41 41 46 41 39 34 32 38 41 40 43
67 63 63 63 62 60 60 61 62 62 61 62 60 58 54 54 53 53 54 54 54 55 55 52 50 49 47 46 46 44 44 42 41 40 39 38 37 36 33 32 33 38 40
65 64 62 63 60 61 61 61 62 61 60 61 59 58 56 54 53 53 53 53 53 51 53 51 49 48 47 46 45 44 43 41 40 40 38 38 37 35 35 35 37 37 36
60 59 59 60 60 60 61 61 60 60 60 59 59 57 56 55 54 54 52 51 51 51 51 50 50 49 48 47 45 43 42 41 39 38 38 39 39 40 38 36 34 34 33
62 61 60 61 60 60 59 62 61 59 58 58 56 55 55 53 53 55 54 53 52 50 51 49 50 49 49 47 43 42 40 40 38 38 38 38 39 39 39 37 32 30 29
58 59 59 59 59 58 58 59 60 59 58 56 55 54 55 54 55 53 54 52 51 52 50 50 49 47 45 44 43 41 40 39 38 37 38 37 41 41 40 40 39 35 29
57 58 59 58 59 60 58 57 60 61 58 57 58 58 56 54 54 54 51 50 49 51 50 49 47 46 45 44 43 40 40 39 38 39 38 37 38 38 39 37 38 36 32
58 59 60 60 61 61 59 58 59 58 57 58 55 54 55 55 54 52 51 51 50 50 49 49 47 46 45 45 42 40 41 40 38 38 38 38 39 37 37 35 34 31 30
61 60 60 60 60 61 61 59 61 60 57 55 54 54 55 54 53 51 51 50 49 49 48 47 46 46 45 44 42 40 40 38 37 38 38 38 42 36 33 30 30 29 28
60 60 60 60 60 62 62 58 56 54 55 55 53 54 54 53 51 51 49 48 48 46 46 46 46 45 44 42 42 41 40 39 38 38 36 37 36 33 31 30 29 28 32
61 60 60 60 61 59 58 56 55 55 55 55 55 53 53 53 50 49 48 47 48 45 46 47 46 44 42 42 41 40 38 37 38 37 36 36 34 32 31 30 28 28 26
58 58 55 55 56 57 54 53 54 55 55 54 53 51 51 48 49 48 45 48 46 47 47 46 43 42 42 42 39 39 36 35 35 35 36 36 36 40 34 31 27 26 25
56 58 55 56 56 54 51 52 52 53 52 51 51 51 50 49 47 46 46 45 47 46 45 43 41 38 42 40 39 37 33 34 33 31 32 32 36 36 36 36 34 30 25
55 54 55 55 54 52 52 50 50 50 49 49 50 50 49 47 47 48 47 46 44 44 42 40 40 39 38 38 38 37 32 32 31 30 30 32 35 33 31 32 32 30 31
53 52 51 51 51 51 50 49 50 49 47 47 48 48 46 45 46 45 45 43 43 41 39 37 38 36 38 38 38 37 31 30 30 30 31 30 29 29 29 27 26 27 26
48 47 48 48 48 49 49 48 46 47 46 45 46 46 46 44 44 42 42 42 39 38 37 37 36 35 34 38 37 35 29 29 29 32 32 31 29 30 33 28 26 25 25
46 45 46 46 45 45 46 45 43 44 43 46 46 45 44 44 43 42 40 39 38 38 37 35 34 36 33 36 37 35 27 29 29 30 30 33 30 31 31 22 22 20 23
44 44 44 43 43 45 46 45 45 44 45 45 44 45 45 43 42 40 39 38 36 34 33 32 32 32 33 32 36 36 31 30 29 28 28 28 32 32 32 32 23 20 25
42 44 43 44 46 47 47 44 42 45 45 44 43 42 42 42 41 38 37 36 33 31 31 26 29 29 31 34 35 36 35 33 28 29 29 28 32 32 32 31 30 31 27
41 45 44 44 44 44 43 42 42 43 42 42 40 39 40 39 38 36 35 32 31 28 29 29 29 29 30 29 34 35 35 33 31 30 30 31 32 33 31 32 32 27 22
43 44 43 41 40 42 42 41 42 42 40 38 38 37 36 36 35 35 34 31 29 28 29 29 29 28 29 29 29 30 30 34 33 29 30 26 27 22 23 23 27 25 22
42 42 40 39 39 40 40 41 41 41 38 37 36 36 35 34 33 34 34 33 32 32 32 29 29 26 26 29 32 32 29 29 30 29 26 26 25 23 23 23 24 23 22
41 40 38 38 37 38 37 38 38 37 35 34 33 31 31 31 31 32 34 36 35 35 35 36 32 31 34 35 36 35 35 33 31 27 25 25 22 22 22 22 21 21 20

GFSMW_sfc_temp_057.txt.gz
Temp
62 64 64 64 62 60 59 59 58 56 57 56 54 53 52 52 53 54 56 56 56 55 52 51 50 50 49 48 49 46 46 44 42 42 42 42 43 42 43 43 43 45 46
60 63 64 62 61 60 60 58 59 57 58 58 55 55 53 53 53 54 55 55 55 54 53 51 50 50 48 48 47 46 43 42 42 41 37 37 39 41 44 42 44 41 42
61 63 63 61 60 59 59 60 60 59 59 58 56 53 53 53 52 52 52 53 54 54 53 51 50 49 48 46 45 44 44 42 41 42 40 35 32 35 39 40 40 40 40
64 65 63 61 61 61 62 62 60 59 59 59 56 54 53 51 51 52 52 53 54 54 53 52 49 48 47 46 45 46 44 42 41 40 44 40 38 34 32 37 39 38 41
64 64 64 63 62 61 60 60 59 59 59 59 58 55 52 52 52 51 52 51 52 53 52 50 48 47 46 45 44 43 42 42 42 39 37 37 35 35 33 30 33 36 39
62 64 65 63 61 59 59 58 59 59 60 59 57 55 53 53 52 50 50 50 49 49 49 50 48 49 46 45 44 43 43 40 38 38 37 37 36 35 33 31 32 32 36
59 58 59 60 59 58 59 59 59 60 59 59 57 56 54 54 53 52 52 49 47 48 49 50 48 47 47 46 47 44 42 40 38 37 37 38 37 38 36 34 33 32 31
59 57 59 59 59 60 60 59 60 60 58 57 56 55 54 53 51 51 51 50 51 49 49 47 47 49 49 48 45 42 40 39 37 37 37 37 38 37 37 35 32 29 31
58 58 59 59 59 60 59 59 59 58 57 57 54 53 52 52 51 53 52 50 48 48 46 49 48 48 48 46 44 40 39 38 37 36 36 36 37 37 37 36 36 35 31
55 56 58 58 58 59 59 58 58 58 56 55 54 54 53 54 54 51 48 48 48 47 47 47 46 47 46 44 42 40 39 39 37 38 36 36 36 36 36 39 38 36 34
55 56 58 58 59 58 56 57 56 56 54 54 52 51 51 52 51 50 49 47 47 48 47 45 45 46 44 42 41 40 39 39 37 37 37 37 37 35 35 34 32 31 31
56 58 58 58 56 57 57 57 57 56 54 52 52 52 52 51 49 47 47 48 47 46 47 46 45 44 44 42 40 39 39 38 36 37 36 36 40 35 33 31 31 29 28
55 55 55 57 58 58 57 54 52 51 52 54 53 51 50 49 48 48 48 48 47 46 45 44 44 44 42 40 40 39 38 38 37 37 35 35 35 32 30 29 28 28 31
57 55 54 55 56 55 53 51 52 53 53 53 52 50 49 49 49 47 45 45 46 45 45 45 44 42 41 40 40 40 37 36 36 35 34 34 33 31 30 30 28 28 26
55 55 53 52 53 52 51 51 52 53 53 52 51 50 50 48 46 46 45 47 46 47 46 45 43 41 40 40 38 37 35 33 33 33 33 33 34 38 34 30 27 26 24
54 55 53 53 53 51 49 50 51 51 52 51 49 49 48 48 47 46 45 46 46 46 44 42 40 38 40 40 39 37 33 33 32 31 31 31 35 35 37 37 34 29 25
51 51 51 50 49 49 50 48 47 48 48 49 49 48 47 46 46 46 46 44 43 43 42 41 39 37 37 39 39 38 33 31 31 30 30 31 35 34 31 34 34 33 32
47 47 47 46 46 46 46 47 48 48 48 47 47 47 46 45 45 44 42 42 42 40 38 37 37 35 37 38 39 37 32 30 30 30 30 31 30 30 30 28 27 27 28
43 42 44 45 45 46 46 46 45 47 47 46 45 45 45 44 43 42 42 40 37 36 36 36 35 33 33 37 37 36 30 29 29 30 30 31 30 32 34 28 26 26 27
43 42 43 43 43 43 45 44 44 46 44 45 45 44 43 43 42 40 38 37 36 36 35 34 33 35 32 36 37 36 29 28 29 29 30 33 31 32 32 24 22 21 25
41 43 43 42 42 44 45 43 42 43 44 44 44 45 43 42 40 38 37 36 34 32 31 31 31 32 32 32 37 37 30 30 31 30 28 29 32 33 33 32 24 22 26
41 43 42 41 42 43 44 42 42 45 45 43 42 41 40 40 39 35 34 34 32 30 30 26 29 30 31 34 35 36 36 33 31 30 29 29 32 33 33 31 30 31 26
39 41 42 42 41 44 43 39 40 42 41 40 38 38 38 37 36 34 33 31 31 28 30 30 30 31 31 30 34 35 35 34 33 33 32 31 32 32 31 32 31 28 24
40 43 42 41 40 42 40 39 39 39 37 36 35 35 33 33 33 33 32 30 28 29 31 31 30 31 32 29 29 29 29 33 33 32 33 31 30 28 28 25 28 24 22
41 42 40 39 37 37 35 35 35 35 33 33 33 32 31 31 31 32 31 32 32 31 32 33 32 31 30 31 33 31 28 28 29 30 30 27 26 26 25 24 24 24 22
40 38 37 36 34 33 33 33 34 33 31 31 31 29 29 29 29 29 31 35 34 35 36 36 33 34 36 35 36 35 33 34 33 29 27 25 25 25 25 23 24 21 20